Time,TemperatureF,DewpointF,PressureIn,WindDirection,WindDirectionDegrees,WindSpeedMPH,WindSpeedGustMPH,Humidity,HourlyPrecipIn,Conditions,Clouds,dailyrainin,SoftwareType,DateUTC
2013-09-28 00:13:00,73.0,66.0,29.98,SE,131,1.0,5.0,80,0.00,,,0.01,,2013-09-28 05:13:00,
2013-09-28 00:22:00,73.0,66.0,29.98,SE,132,2.0,5.0,80,0.00,,,0.01,,2013-09-28 05:22:00,
2013-09-28 00:53:00,72.0,65.0,29.98,ESE,121,1.0,6.0,80,0.00,,,0.01,,2013-09-28 05:53:00,
2013-09-28 01:13:00,72.0,66.0,29.98,SE,138,2.0,4.0,81,0.00,,,0.01,,2013-09-28 06:13:00,
2013-09-28 01:22:00,71.0,65.0,29.99,SSE,147,4.0,8.0,82,0.00,,,0.01,,2013-09-28 06:22:00,
2013-09-28 01:42:00,72.0,66.0,29.98,SE,139,2.0,5.0,82,0.00,,,0.01,,2013-09-28 06:42:00,
2013-09-28 01:52:00,71.0,65.0,29.98,SE,138,3.0,6.0,81,0.00,,,0.01,,2013-09-28 06:52:00,
2013-09-28 02:12:00,71.0,65.0,29.98,SE,140,3.0,6.0,82,0.00,,,0.01,,2013-09-28 07:12:00,
2013-09-28 02:22:00,71.0,65.0,29.98,ESE,123,3.0,7.0,82,0.00,,,0.01,,2013-09-28 07:22:00,
2013-09-28 02:42:00,71.0,65.0,29.98,SSE,151,3.0,5.0,82,0.00,,,0.01,,2013-09-28 07:42:00,
2013-09-28 02:52:00,71.0,65.0,29.98,SE,129,3.0,7.0,82,0.00,,,0.01,,2013-09-28 07:52:00,
2013-09-28 03:13:00,71.0,65.0,29.98,ESE,123,4.0,8.0,82,0.00,,,0.01,,2013-09-28 08:13:00,
2013-09-28 03:21:00,70.0,65.0,29.97,SE,128,2.0,5.0,83,0.00,,,0.01,,2013-09-28 08:21:00,
2013-09-28 03:43:00,70.0,65.0,29.97,ESE,111,3.0,7.0,83,0.00,,,0.01,,2013-09-28 08:43:00,
2013-09-28 03:53:00,70.0,65.0,29.98,SE,136,3.0,7.0,83,0.00,,,0.01,,2013-09-28 08:53:00,
2013-09-28 04:11:00,70.0,65.0,29.98,ESE,123,2.0,6.0,84,0.00,,,0.01,,2013-09-28 09:11:00,
2013-09-28 04:22:00,70.0,65.0,29.98,SE,130,1.0,6.0,84,0.00,,,0.01,,2013-09-28 09:22:00,
2013-09-28 04:54:00,70.0,65.0,29.98,SE,140,2.0,5.0,85,0.00,,,0.01,,2013-09-28 09:54:00,
2013-09-28 05:13:00,69.0,64.0,29.98,SE,140,2.0,5.0,85,0.00,,,0.01,,2013-09-28 10:13:00,
2013-09-28 05:22:00,69.0,64.0,29.99,SE,131,2.0,6.0,85,0.00,,,0.01,,2013-09-28 10:22:00,
2013-09-28 05:43:00,69.0,64.0,29.99,SE,132,2.0,5.0,85,0.00,,,0.01,,2013-09-28 10:43:00,
2013-09-28 05:52:00,69.0,65.0,29.99,ESE,121,1.0,6.0,86,0.00,,,0.01,,2013-09-28 10:52:00,
2013-09-28 06:12:00,69.0,65.0,30.00,ESE,123,2.0,5.0,86,0.00,,,0.01,,2013-09-28 11:12:00,
2013-09-28 06:22:00,69.0,65.0,30.01,SE,124,2.0,6.0,86,0.00,,,0.01,,2013-09-28 11:22:00,
2013-09-28 06:52:00,68.0,64.0,30.02,SE,134,1.0,4.0,87,0.00,,,0.01,,2013-09-28 11:52:00,
2013-09-28 07:12:00,68.0,64.0,30.02,SE,137,1.0,4.0,88,0.00,,,0.01,,2013-09-28 12:12:00,
2013-09-28 07:22:00,68.0,64.0,30.03,SE,136,1.0,3.0,88,0.00,,,0.01,,2013-09-28 12:22:00,
2013-09-28 07:42:00,68.0,65.0,30.03,SE,128,2.0,4.0,89,0.00,,,0.01,,2013-09-28 12:42:00,
2013-09-28 07:52:00,68.0,65.0,30.03,SE,126,1.0,3.0,89,0.00,,,0.01,,2013-09-28 12:52:00,
2013-09-28 08:12:00,68.0,65.0,30.04,SE,129,1.0,4.0,89,0.00,,,0.01,,2013-09-28 13:12:00,
2013-09-28 08:22:00,68.0,65.0,30.04,SE,143,2.0,4.0,89,0.00,,,0.01,,2013-09-28 13:22:00,
2013-09-28 08:52:00,70.0,66.0,30.05,SSE,149,6.0,9.0,86,0.00,,,0.01,,2013-09-28 13:52:00,
2013-09-28 09:12:00,70.0,65.0,30.05,SE,144,5.0,9.0,84,0.00,,,0.01,,2013-09-28 14:12:00,
2013-09-28 09:21:00,71.0,66.0,30.06,SE,134,4.0,8.0,83,0.00,,,0.00,,2013-09-28 14:21:00,
2013-09-28 09:42:00,72.0,67.0,30.06,SE,138,0.0,8.0,83,0.00,,,0.00,,2013-09-28 14:42:00,
2013-09-28 09:52:00,74.0,67.0,30.05,SSE,147,3.0,10.0,79,0.00,,,0.00,,2013-09-28 14:52:00,
2013-09-28 10:12:00,75.0,67.0,30.06,SE,129,5.0,9.0,77,0.00,,,0.00,,2013-09-28 15:12:00,
2013-09-28 10:23:00,76.0,68.0,30.06,SSE,147,5.0,8.0,77,0.00,,,0.00,,2013-09-28 15:23:00,
2013-09-28 10:44:00,77.0,68.0,30.06,SSE,147,4.0,10.0,75,0.00,,,0.00,,2013-09-28 15:44:00,
2013-09-28 10:54:00,78.0,69.0,30.06,SSE,150,10.0,14.0,73,0.00,,,0.00,,2013-09-28 15:54:00,
2013-09-28 11:14:00,78.0,68.0,30.07,SE,143,9.0,15.0,72,0.00,,,0.00,,2013-09-28 16:14:00,
2013-09-28 11:24:00,78.0,69.0,30.06,SE,131,8.0,12.0,73,0.00,,,0.00,,2013-09-28 16:24:00,
2013-09-28 11:43:00,79.0,68.0,30.06,SSE,156,8.0,13.0,70,0.00,,,0.00,,2013-09-28 16:43:00,
2013-09-28 11:54:00,80.0,69.0,30.06,SE,146,8.0,13.0,69,0.00,,,0.00,,2013-09-28 16:54:00,
2013-09-28 12:13:00,81.0,69.0,30.06,SSE,157,7.0,12.0,68,0.00,,,0.00,,2013-09-28 17:13:00,
2013-09-28 12:23:00,81.0,69.0,30.06,ESE,115,8.0,13.0,66,0.00,,,0.00,,2013-09-28 17:23:00,
2013-09-28 12:43:00,82.0,69.0,30.06,SE,140,5.0,8.0,66,0.00,,,0.00,,2013-09-28 17:43:00,
2013-09-28 12:52:00,82.0,69.0,30.05,South,187,5.0,10.0,64,0.00,,,0.00,,2013-09-28 17:52:00,
2013-09-28 13:12:00,84.0,70.0,30.04,South,178,7.0,11.0,62,0.00,,,0.00,,2013-09-28 18:12:00,
2013-09-28 13:22:00,84.0,68.0,30.03,South,180,7.0,11.0,59,0.00,,,0.00,,2013-09-28 18:22:00,
2013-09-28 13:42:00,85.0,69.0,30.03,East,86,4.0,11.0,58,0.00,,,0.00,,2013-09-28 18:42:00,
2013-09-28 13:52:00,84.0,68.0,30.02,SE,139,5.0,10.0,58,0.00,,,0.00,,2013-09-28 18:52:00,
2013-09-28 14:11:00,85.0,67.0,30.01,ESE,111,3.0,11.0,55,0.00,,,0.00,,2013-09-28 19:11:00,
2013-09-28 14:22:00,86.0,67.0,30.00,SE,141,7.0,12.0,53,0.00,,,0.00,,2013-09-28 19:22:00,
2013-09-28 14:42:00,86.0,67.0,29.99,SE,130,4.0,13.0,54,0.00,,,0.00,,2013-09-28 19:42:00,
2013-09-28 14:52:00,86.0,67.0,29.98,East,88,5.0,11.0,54,0.00,,,0.00,,2013-09-28 19:52:00,
2013-09-28 15:12:00,85.0,65.0,29.98,South,170,5.0,11.0,52,0.00,,,0.00,,2013-09-28 20:12:00,
2013-09-28 15:22:00,85.0,66.0,29.98,SSE,153,5.0,12.0,53,0.00,,,0.00,,2013-09-28 20:22:00,
2013-09-28 15:43:00,86.0,65.0,29.98,South,173,1.0,8.0,50,0.00,,,0.00,,2013-09-28 20:43:00,
2013-09-28 15:53:00,85.0,68.0,29.97,East,87,4.0,10.0,56,0.00,,,0.00,,2013-09-28 20:53:00,
2013-09-28 16:12:00,86.0,68.0,29.97,East,95,4.0,10.0,55,0.00,,,0.00,,2013-09-28 21:12:00,
2013-09-28 16:23:00,86.0,68.0,29.96,SE,145,4.0,13.0,55,0.00,,,0.00,,2013-09-28 21:23:00,
2013-09-28 16:44:00,86.0,68.0,29.96,East,91,6.0,13.0,55,0.00,,,0.00,,2013-09-28 21:44:00,
2013-09-28 16:55:00,85.0,66.0,29.96,SE,134,7.0,15.0,54,0.00,,,0.00,,2013-09-28 21:55:00,
2013-09-28 17:13:00,85.0,66.0,29.95,East,87,4.0,11.0,54,0.00,,,0.00,,2013-09-28 22:13:00,
2013-09-28 17:23:00,85.0,66.0,29.96,SE,146,5.0,16.0,53,0.00,,,0.00,,2013-09-28 22:23:00,
2013-09-28 17:43:00,85.0,66.0,29.95,East,94,3.0,11.0,53,0.00,,,0.00,,2013-09-28 22:43:00,
2013-09-28 17:54:00,84.0,66.0,29.95,ESE,120,5.0,11.0,54,0.00,,,0.00,,2013-09-28 22:54:00,
2013-09-28 18:12:00,83.0,65.0,29.96,SE,125,2.0,12.0,55,0.00,,,0.00,,2013-09-28 23:12:00,
2013-09-28 18:22:00,83.0,66.0,29.96,SE,140,3.0,10.0,56,0.00,,,0.00,,2013-09-28 23:22:00,
2013-09-28 18:43:00,82.0,65.0,29.96,SE,142,4.0,8.0,57,0.00,,,0.00,,2013-09-28 23:43:00,
2013-09-28 18:53:00,81.0,66.0,29.97,SE,128,1.0,6.0,61,0.00,,,0.00,,2013-09-28 23:53:00,
2013-09-28 19:11:00,81.0,67.0,29.96,East,101,1.0,6.0,63,0.00,,,0.00,,2013-09-29 00:11:00,
2013-09-28 19:22:00,80.0,67.0,29.97,ESE,106,1.0,6.0,65,0.00,,,0.00,,2013-09-29 00:22:00,
2013-09-28 19:43:00,79.0,66.0,29.98,ESE,122,3.0,6.0,65,0.00,,,0.00,,2013-09-29 00:43:00,
2013-09-28 19:52:00,78.0,66.0,29.97,SE,144,3.0,5.0,66,0.00,,,0.00,,2013-09-29 00:52:00,
2013-09-28 20:12:00,78.0,66.0,29.98,SE,126,2.0,5.0,67,0.00,,,0.00,,2013-09-29 01:12:00,
2013-09-28 20:22:00,77.0,66.0,29.98,SE,142,3.0,5.0,69,0.00,,,0.00,,2013-09-29 01:22:00,
2013-09-28 20:43:00,77.0,66.0,29.98,SE,130,1.0,4.0,69,0.00,,,0.00,,2013-09-29 01:43:00,
2013-09-28 20:52:00,76.0,65.0,29.99,SE,136,0.0,3.0,70,0.00,,,0.00,,2013-09-29 01:52:00,
2013-09-28 21:12:00,76.0,66.0,30.00,SE,134,0.0,2.0,71,0.00,,,0.00,,2013-09-29 02:12:00,
2013-09-28 21:22:00,75.0,66.0,30.00,ESE,114,1.0,3.0,73,0.00,,,0.00,,2013-09-29 02:22:00,
2013-09-28 21:43:00,75.0,66.0,30.00,ESE,113,0.0,3.0,73,0.00,,,0.00,,2013-09-29 02:43:00,
2013-09-28 21:53:00,74.0,65.0,30.01,SE,130,0.0,4.0,73,0.00,,,0.00,,2013-09-29 02:53:00,
2013-09-28 22:12:00,74.0,65.0,30.01,ESE,120,0.0,3.0,74,0.00,,,0.00,,2013-09-29 03:12:00,
2013-09-28 22:23:00,74.0,66.0,30.01,SE,142,3.0,5.0,75,0.00,,,0.00,,2013-09-29 03:23:00,
2013-09-28 22:55:00,73.0,65.0,30.01,ESE,119,0.0,4.0,76,0.00,,,0.00,,2013-09-29 03:55:00,
2013-09-28 23:02:00,-999.0,-99.9,30.02,ESE,121,2.0,4.0,-999,-99.99,,,-99.99,,2013-09-29 04:02:00,
2013-09-28 23:14:00,73.0,65.0,30.02,ESE,121,2.0,4.0,76,0.00,,,0.00,,2013-09-29 04:14:00,
2013-09-28 23:24:00,73.0,65.0,30.03,ESE,119,2.0,4.0,76,0.00,,,0.00,,2013-09-29 04:24:00,
2013-09-28 23:54:00,73.0,65.0,30.03,SE,135,3.0,6.0,77,0.00,,,0.00,,2013-09-29 04:54:00,